Hauptseite
METAR-TAF:

METAR-TAF

Flughäfen :

Flughafen Sitten

Sion, Schweiz

Breite: 46-13-11N, Länge: 007-19-36E, Höhe: 483 m

Beobachtung

Neuester Wetterbericht von vor 27 Minuten, um 12:20 UTC
Wind 7 kt aus Südwest, variierte zwischen Süd/Südwest und West
Temperatur 14°C
Luftfeuchtigkeit 58%
Luftdruck 1022 hPa
Sichtweite 10 km oder mehr
keine Wolken unter 1500 m und keine Kumulonimbus oder Gewitterwolken

METAR: LSMS 221220Z 23007KT 200V260 CAVOK 14/06 Q1022 RMK BLU+

Zeit: 14:47 (12:47 UTC)


TAF: fehlend

Wetterbeobachtungen und Prognosen von mehr als 4000 Flughäfen (METAR und TAF Bericht).

Die verfügbaren Stationen werden durch gelbe und rote Markierungen auf der Karte dargestellt.

Führen Sie die Maus auf sie, um den Namen der Station zu sehen.

Darauf klicken, um die Beobachtung von Wetterbeobachtungen und Prognosen zu sehen.

Um die Karte zu ändern : klicken Sie auf den grünen Tasten mit einem schwarzen Kreuz Zum Vergrößern, auf den grünen Button mit einem Gedankenstrich zu verkleinern, oder auf die grünen Pfeile für benachbarte Karten.


METAR-TAF: